968  
ASUS41 KPHI 192112  
RWRPHI  
 
REGIONAL WEATHER ROUNDUP  
NATIONAL WEATHER SERVICE MOUNT HOLLY NJ  
400 PM EST TUE NOV 19 2019  
 
NOTE: "FAIR" INDICATES FEW OR NO CLOUDS BELOW 12,000 FEET WITH NO  
SIGNIFICANT WEATHER AND/OR S TO VISIBILITY
.  
 
* = STATION DOES NOT REPORT PRECIPITATION (E.G. RAIN, SNOW, ETC.)  
OR FOG.
 
 
NJZ015>026-192200-  
SOUTHERN NEW JERSEY  
 
CITY SKY/WX TMP DP RH WIND PRES REMARKS
 
POMONA FAIR 51 39 63 NW3 29.81R  
WILDWOOD* FAIR 47 41 80 CALM 29.83R  
MILLVILLE FAIR 51 37 58 W3 29.81R  
WRIGHTSTOWN FAIR 48 37 66 W6 29.79F  
MOUNT HOLLY FAIR 49 36 61 CALM 29.80S  
TRENTON FAIR 46 36 68 CALM 29.81R  
 

 
NJZ001>014-192200-  
NORTHERN NEW JERSEY  
 
CITY SKY/WX TMP DP RH WIND PRES REMARKS
 
SUSSEX CLOUDY 45 31 58 N5 29.80R  
ANDOVER* N/A 45 33 63 NE5 29.80R  
MORRISTOWN CLOUDY 46 37 71 NW3 29.82R  
NEWARK MOCLDY 47 35 63 NW7 29.81R  
TETERBORO CLOUDY 47 35 63 NW8 29.81R  
CALDWELL CLOUDY 47 34 60 NW5 29.82R  
SOMERVILLE FAIR 46 33 60 CALM 29.80R  
ALLAIRE* FAIR 47 38 71 NW8 29.81R  
TOMS RIVER* FAIR 47 39 74 MISG 29.81R  
 

 
PAZ043-044-047-054-055-060>062-066>071-192200-  
EASTERN PENNSYLVANIA  
 
CITY SKY/WX TMP DP RH WIND PRES REMARKS
 
PHILADELPHIA MOCLDY 51 36 56 NE3 29.81R  
NORTH PHILA FAIR 50 35 56 N6 29.82R  
BLUE BELL* FAIR 47 36 64 CALM 29.81R  
DOYLESTOWN FAIR 48 34 58 NW3 29.80R  
QUAKERTOWN* CLEAR 46 34 61 CALM 29.81R  
PERKASIE* FAIR 46 34 61 NW5 29.81R  
POTTSTOWN FAIR 47 34 60 NW5 29.82R  
LANCASTER FAIR 50 34 54 SW6 29.80R  
COATESVILLE FAIR 48 36 61 W5 29.81R  
WEST CHESTER N/A 50 34 53 W6 29.81R  
READING FAIR 50 35 56 N8 29.80R  
ALLENTOWN FAIR 46 32 58 N6 29.81R  
QN CITY/ALNTWN FAIR 45 34 65 N6 29.82R  
MOUNT POCONO CLOUDY 38 31 76 NW10 29.77R WCI 31  
HAZLETON CLOUDY 41 32 70 NW3 29.82R  
LEHIGHTON FAIR 45 34 65 NW5 29.82R  
WILKES BARRE CLOUDY 44 31 60 NW5 29.81R  
 

 
DEZALL-MDZ008-012-015-019-020-192200-  
DELAWARE AND EASTERN MARYLAND  
 
CITY SKY/WX TMP DP RH WIND PRES REMARKS
 
WILMINGTON FAIR 53 35 50 NW6 29.81R  
CHESWOLD CLEAR 52 36 54 NW7 29.81R  
GEORGETOWN FAIR 52 42 69 CALM 29.82R  
EASTON CLEAR 52 41 66 CALM 29.85S  
STEVENSVILLE FAIR 50 43 76 S6 29.82R  
ABERDEEN MOCLDY 50 41 71 SE3 29.82R  
PATUXENT MOCLDY 52 41 66 W7 29.82R  
OCEAN CITY FAIR 52 41 66 NW7 29.82R  
WALLOPS ISLAND FAIR 48 42 80 NW5 29.82S  
CAMBRIDGE CLEAR 52 41 66 CALM 29.82R  
SALISBURY FAIR 50 42 74 SW3 29.82R  
 

 
PAZ001-021-NYZ056-072-MDZ011-DCZ001-192200-  
OTHER NEARBY LOCATIONS  
 
CITY SKY/WX TMP DP RH WIND PRES REMARKS
 
HARRISBURG MOCLDY 49 36 61 CALM 29.79S  
STATE COLLEGE MOCLDY 46 32 57 NW7 29.80R  
WILLIAMSPORT CLOUDY 48 33 56 N3 29.80R  
BINGHAMTON CLOUDY 37 27 67 N9 29.78R WCI 30  
NEW YORK CITY CLOUDY 46 34 62 VRB7 29.83R  
BALTIMORE MOCLDY 53 36 52 W7 29.80R  
WASHINGTON DC MOCLDY 53 36 52 W7 29.82R  
 

 
 
 
CLICK HERE TO GO TO PREVIOUS BULLETINS.

The Nexlab PA Page
The Nexlab NJ Page
The Nexlab DE Page
The Nexlab MD Page Main Text Page